Wausau, WI

2:27 PM CDT on October 22, 2017 (GMT -0500)
Wausau Downtown

Weather History for KAUW - August, 2012

Change the Weather History Date:

Thursday, August 16, 2012

  Actual Average Record
Temperature  
Mean Temperature 65 °F 68 °F  
Max Temperature 72 °F 78 °F 99 °F (1988)
Min Temperature 57 °F 57 °F 42 °F (1979)
Degree Days  
Heating Degree Days 0 1  
Month to date heating degree days 6 16  
Since 1 June heating degree days 47 128  
Since 1 July heating degree days 6 39  
Cooling Degree Days 0 4  
Month to date cooling degree days 65 70  
Year to date cooling degree days 602 330  
Since 1 June cooling degree days 559 311  
Growing Degree Days 16 (Base 50)    
Moisture  
Dew Point 56 °F    
Average Humidity 68    
Maximum Humidity 87    
Minimum Humidity 49    
Precipitation  
Precipitation T in 0.14 in 2.35 in (1940)
Month to date precipitation 2.00 2.21  
Year to date precipitation 18.77 20.26  
Snow  
Snow 0.00 in 0.00 in 0.00 in ()
Month to date snowfall 0.0 0.0  
Since 1 June snowfall 0.0  
Since 1 July snowfall 0.0 0.0  
Snow Depth 0.00 in    
Sea Level Pressure  
Sea Level Pressure 29.79 in    
Wind  
Wind Speed 12 mph (WNW)    
Max Wind Speed 25 mph    
Max Gust Speed 32 mph    
Visibility 10 miles    
Events      
T = Trace of Precipitation, MM = Missing Value Source: NWS Daily Summary

Daily Weather History Graph

Daily Weather History Graph

Search for Another Location

Airport or City:

Trip Planner

Search our weather history database for the weather conditions in past years. The results will help you decide how hot, cold, wet, or windy it might be!

Date:

Astronomy

Aug. 16, 2012 Rise Set
Actual Time 6:02 AM CDT 8:02 PM CDT
Civil Twilight 5:30 AM CDT 8:33 PM CDT
Nautical Twilight 4:51 AM CDT 9:12 PM CDT
Astronomical Twilight 4:08 AM CDT 9:55 PM CDT
Moon 5:00 AM CDT (8/16) 7:10 PM CDT (8/16)
Length of Visible Light 15h 03m
Length of Day
14h 00m
Waning Crescent, 1% of the Moon is Illuminated
Aug 16
Waning Crescent
Aug 17
New
Aug 24
First Quarter
Aug 31
Full
Sep 8
Last Quarter

Hourly Weather History & Observations

Time (CDT) Temp. Dew Point Humidity Pressure Visibility Wind Dir Wind Speed Gust Speed Precip Events Conditions
12:54 AM 71.1 °F 57.9 °F 63% 29.77 in 10.0 mi South 9.2 mph - N/A   Mostly Cloudy
1:54 AM 70.0 °F 57.9 °F 65% 29.73 in 10.0 mi ESE 5.8 mph - N/A   Partly Cloudy
2:54 AM 70.0 °F 59.0 °F 68% 29.74 in 10.0 mi Calm Calm - N/A   Partly Cloudy
3:54 AM 69.1 °F 61.0 °F 75% 29.73 in 10.0 mi SW 3.5 mph - N/A   Mostly Cloudy
4:54 AM 68.0 °F 61.0 °F 78% 29.71 in 10.0 mi WSW 3.5 mph - 0.00 in   Overcast
5:54 AM 68.0 °F 62.1 °F 81% 29.71 in 10.0 mi West 5.8 mph - N/A   Overcast
6:54 AM 66.9 °F 62.1 °F 84% 29.69 in 10.0 mi WSW 4.6 mph - N/A   Overcast
7:33 AM 66.2 °F 62.6 °F 88% 29.70 in 10.0 mi WSW 4.6 mph - N/A   Overcast
7:54 AM 68.0 °F 63.0 °F 84% 29.70 in 10.0 mi West 10.4 mph - N/A   Overcast
8:54 AM 66.9 °F 60.1 °F 79% 29.73 in 10.0 mi NW 10.4 mph 17.3 mph N/A   Overcast
9:54 AM 66.0 °F 57.9 °F 75% 29.74 in 10.0 mi NW 12.7 mph 20.7 mph N/A   Overcast
10:44 AM 68.0 °F 57.2 °F 68% 29.75 in 10.0 mi NW 16.1 mph 25.3 mph N/A   Scattered Clouds
10:54 AM 68.0 °F 55.9 °F 65% 29.75 in 10.0 mi NW 15.0 mph 23.0 mph N/A   Scattered Clouds
11:54 AM 68.0 °F 55.0 °F 63% 29.77 in 10.0 mi WNW 17.3 mph 24.2 mph N/A   Overcast
12:54 PM 71.1 °F 52.0 °F 51% 29.77 in 10.0 mi WNW 16.1 mph 27.6 mph N/A   Mostly Cloudy
1:54 PM 69.1 °F 52.0 °F 54% 29.80 in 10.0 mi NW 18.4 mph 25.3 mph N/A   Overcast
2:54 PM 69.1 °F 53.1 °F 57% 29.80 in 10.0 mi WNW 16.1 mph - N/A   Overcast
3:54 PM 71.1 °F 52.0 °F 51% 29.80 in 10.0 mi WNW 17.3 mph 26.5 mph N/A   Mostly Cloudy
4:54 PM 69.1 °F 52.0 °F 54% 29.81 in 10.0 mi WNW 16.1 mph - 0.00 in   Overcast
5:54 PM 66.9 °F 52.0 °F 59% 29.82 in 10.0 mi WNW 20.7 mph 31.1 mph N/A   Overcast
6:54 PM 64.9 °F 52.0 °F 63% 29.83 in 10.0 mi WNW 15.0 mph 24.2 mph 0.00 in   Overcast
7:54 PM 63.0 °F 53.1 °F 70% 29.86 in 10.0 mi WNW 13.8 mph - N/A   Scattered Clouds
8:54 PM 62.1 °F 52.0 °F 70% 29.90 in 10.0 mi West 9.2 mph - N/A   Overcast
9:54 PM 61.0 °F 52.0 °F 72% 29.93 in 10.0 mi West 6.9 mph - N/A   Overcast
10:54 PM 61.0 °F 52.0 °F 72% 29.94 in 10.0 mi West 11.5 mph - N/A   Overcast
11:54 PM 60.1 °F 52.0 °F 75% 29.94 in 10.0 mi WNW 12.7 mph - N/A   Overcast